Time,TemperatureF,DewpointF,PressureIn,WindDirection,WindDirectionDegrees,WindSpeedMPH,WindSpeedGustMPH,Humidity,HourlyPrecipIn,Conditions,Clouds,dailyrainin,SoftwareType,DateUTC
2013-02-27 00:02:00,33.3,26.8,30.20,North,0,0.0,0.0,77,0.00,,,0.00,meteohub,2013-02-27 05:02:00,
2013-02-27 00:07:00,33.4,27.0,30.20,ESE,112,0.0,2.0,77,0.00,,,0.00,meteohub,2013-02-27 05:07:00,
2013-02-27 00:12:00,33.4,27.0,30.20,NE,45,0.0,2.0,77,0.00,,,0.00,meteohub,2013-02-27 05:12:00,
2013-02-27 00:17:00,33.4,27.3,30.20,NE,45,0.0,2.0,78,0.00,,,0.00,meteohub,2013-02-27 05:17:00,
2013-02-27 00:22:00,33.4,27.3,30.20,NE,45,0.0,2.0,78,0.00,,,0.00,meteohub,2013-02-27 05:22:00,
2013-02-27 00:27:00,33.4,27.3,30.20,ENE,68,0.0,2.0,78,0.00,,,0.00,meteohub,2013-02-27 05:27:00,
2013-02-27 00:32:00,33.4,27.3,30.20,NE,45,0.0,2.0,78,0.00,,,0.00,meteohub,2013-02-27 05:32:00,
2013-02-27 00:37:00,33.4,27.3,30.20,East,90,0.0,0.0,78,0.00,,,0.00,meteohub,2013-02-27 05:37:00,
2013-02-27 00:42:00,33.4,27.7,30.20,NNE,22,0.0,2.0,79,0.00,,,0.00,meteohub,2013-02-27 05:42:00,
2013-02-27 00:47:00,33.4,27.7,30.20,North,0,0.0,2.0,79,0.00,,,0.00,meteohub,2013-02-27 05:47:00,
2013-02-27 00:52:00,33.6,27.9,30.20,NW,315,0.0,2.0,79,0.00,,,0.00,meteohub,2013-02-27 05:52:00,
2013-02-27 00:57:00,33.6,27.9,30.17,NNW,338,0.0,0.0,79,0.00,,,0.00,meteohub,2013-02-27 05:57:00,
2013-02-27 01:02:00,33.6,28.2,30.17,East,90,1.0,1.0,80,0.00,,,0.00,meteohub,2013-02-27 06:02:00,
2013-02-27 01:07:00,33.6,28.2,30.17,North,0,0.0,2.0,80,0.00,,,0.00,meteohub,2013-02-27 06:07:00,
2013-02-27 01:12:00,33.6,27.9,30.17,ENE,68,0.0,2.0,79,0.00,,,0.00,meteohub,2013-02-27 06:12:00,
2013-02-27 01:17:00,33.8,28.0,30.17,NNE,22,2.0,2.0,79,0.00,,,0.00,meteohub,2013-02-27 06:17:00,
2013-02-27 01:22:00,33.8,28.2,30.17,NNW,338,0.0,4.0,80,0.00,,,0.00,meteohub,2013-02-27 06:22:00,
2013-02-27 01:27:00,33.8,28.2,30.17,East,90,0.0,4.0,80,0.00,,,0.00,meteohub,2013-02-27 06:27:00,
2013-02-27 01:32:00,33.8,28.2,30.17,NNW,338,1.0,4.0,80,0.00,,,0.00,meteohub,2013-02-27 06:32:00,
2013-02-27 01:37:00,33.8,28.2,30.17,North,0,1.0,2.0,80,0.00,,,0.00,meteohub,2013-02-27 06:37:00,
2013-02-27 01:42:00,33.8,28.2,30.14,NW,315,1.0,2.0,80,0.00,,,0.00,meteohub,2013-02-27 06:42:00,
2013-02-27 01:47:00,34.0,28.8,30.14,NE,45,0.0,2.0,81,0.00,,,0.00,meteohub,2013-02-27 06:47:00,
2013-02-27 01:52:00,33.8,28.6,30.14,NW,315,3.0,3.0,81,0.00,,,0.00,meteohub,2013-02-27 06:52:00,
2013-02-27 01:57:00,34.0,29.1,30.14,North,0,0.0,3.0,82,0.00,,,0.00,meteohub,2013-02-27 06:57:00,
2013-02-27 02:02:00,34.0,29.1,30.14,NNE,22,2.0,3.0,82,0.00,,,0.00,meteohub,2013-02-27 07:02:00,
2013-02-27 02:07:00,34.0,29.1,30.14,NNE,22,1.0,3.0,82,0.00,,,0.00,meteohub,2013-02-27 07:07:00,
2013-02-27 02:12:00,34.0,29.1,30.14,ENE,68,0.0,3.0,82,0.00,,,0.00,meteohub,2013-02-27 07:12:00,
2013-02-27 02:17:00,34.0,29.1,30.14,WNW,292,0.0,2.0,82,0.00,,,0.00,meteohub,2013-02-27 07:17:00,
2013-02-27 02:22:00,34.0,29.1,30.14,NE,45,0.0,2.0,82,0.00,,,0.00,meteohub,2013-02-27 07:22:00,
2013-02-27 02:27:00,34.0,29.1,30.14,WNW,292,0.0,1.0,82,0.00,,,0.00,meteohub,2013-02-27 07:27:00,
2013-02-27 02:32:00,34.0,29.1,30.14,NNW,338,0.0,0.0,82,0.00,,,0.00,meteohub,2013-02-27 07:32:00,
2013-02-27 02:37:00,34.0,29.3,30.14,NE,45,0.0,0.0,83,0.00,,,0.00,meteohub,2013-02-27 07:37:00,
2013-02-27 02:42:00,33.8,29.1,30.14,WNW,292,0.0,0.0,83,0.00,,,0.00,meteohub,2013-02-27 07:42:00,
2013-02-27 02:47:00,33.8,29.5,30.12,WNW,292,0.0,0.0,84,0.00,,,0.00,meteohub,2013-02-27 07:47:00,
2013-02-27 02:52:00,33.6,29.3,30.12,NW,315,0.0,0.0,84,0.00,,,0.00,meteohub,2013-02-27 07:52:00,
2013-02-27 02:57:00,33.6,29.8,30.12,ENE,68,0.0,0.0,86,0.00,,,0.00,meteohub,2013-02-27 07:57:00,
2013-02-27 03:02:00,33.4,29.7,30.12,ENE,68,0.0,0.0,86,0.00,,,0.00,meteohub,2013-02-27 08:02:00,
2013-02-27 03:07:00,33.3,29.8,30.12,ENE,68,0.0,0.0,87,0.00,,,0.00,meteohub,2013-02-27 08:07:00,
2013-02-27 03:12:00,33.3,29.8,30.12,ENE,68,0.0,0.0,87,0.00,,,0.00,meteohub,2013-02-27 08:12:00,
2013-02-27 03:17:00,33.3,29.8,30.12,WNW,292,0.0,0.0,87,0.00,,,0.00,meteohub,2013-02-27 08:17:00,
2013-02-27 03:22:00,33.3,29.8,30.12,WNW,292,0.0,0.0,87,0.00,,,0.00,meteohub,2013-02-27 08:22:00,
2013-02-27 03:27:00,33.3,29.8,30.12,NNE,22,0.0,0.0,87,0.00,,,0.00,meteohub,2013-02-27 08:27:00,
2013-02-27 03:32:00,33.1,29.7,30.12,North,0,2.0,0.0,87,0.00,,,0.00,meteohub,2013-02-27 08:32:00,
2013-02-27 03:37:00,33.1,29.8,30.12,West,270,0.0,2.0,88,0.00,,,0.00,meteohub,2013-02-27 08:37:00,
2013-02-27 03:42:00,33.1,30.2,30.12,North,0,0.0,2.0,89,0.00,,,0.00,meteohub,2013-02-27 08:42:00,
2013-02-27 03:47:00,33.1,30.2,30.12,NNE,22,0.0,2.0,89,0.00,,,0.00,meteohub,2013-02-27 08:47:00,
2013-02-27 03:52:00,33.1,30.2,30.12,NNE,22,0.0,0.0,89,0.00,,,0.00,meteohub,2013-02-27 08:52:00,
2013-02-27 03:57:00,33.3,30.9,30.12,NNE,22,2.0,2.0,91,0.00,,,0.00,meteohub,2013-02-27 08:57:00,
2013-02-27 04:02:00,33.3,31.5,30.12,NNW,338,1.0,2.0,93,0.00,,,0.00,meteohub,2013-02-27 09:02:00,
2013-02-27 04:07:00,33.1,31.3,30.12,NNE,22,0.0,2.0,93,0.00,,,0.00,meteohub,2013-02-27 09:07:00,
2013-02-27 04:12:00,33.1,31.5,30.12,NNE,22,0.0,2.0,94,0.00,,,0.00,meteohub,2013-02-27 09:12:00,
2013-02-27 04:17:00,33.1,31.5,30.12,North,0,0.0,2.0,94,0.00,,,0.00,meteohub,2013-02-27 09:17:00,
2013-02-27 04:22:00,33.1,31.5,30.12,North,0,1.0,2.0,94,0.00,,,0.00,meteohub,2013-02-27 09:22:00,
2013-02-27 04:27:00,32.9,31.6,30.12,North,0,0.0,2.0,95,0.00,,,0.00,meteohub,2013-02-27 09:27:00,
2013-02-27 04:32:00,32.9,31.6,30.12,North,0,0.0,2.0,95,0.00,,,0.00,meteohub,2013-02-27 09:32:00,
2013-02-27 04:37:00,32.9,31.6,30.12,North,0,1.0,2.0,95,0.00,,,0.00,meteohub,2013-02-27 09:37:00,
2013-02-27 04:42:00,32.9,31.8,30.09,NNE,22,2.0,3.0,96,0.00,,,0.00,meteohub,2013-02-27 09:42:00,
2013-02-27 04:47:00,32.9,31.8,30.09,NNE,22,1.0,3.0,96,0.00,,,0.00,meteohub,2013-02-27 09:47:00,
2013-02-27 04:52:00,32.9,32.2,30.09,NNE,22,1.0,3.0,97,0.00,,,0.00,meteohub,2013-02-27 09:52:00,
2013-02-27 04:57:00,32.9,32.2,30.06,NNE,22,1.0,2.0,97,0.00,,,0.00,meteohub,2013-02-27 09:57:00,
2013-02-27 05:02:00,32.9,32.4,30.06,NNE,22,1.0,2.0,98,0.00,,,0.00,meteohub,2013-02-27 10:02:00,
2013-02-27 05:07:00,32.9,32.4,30.06,NNE,22,2.0,2.0,98,0.00,,,0.00,meteohub,2013-02-27 10:07:00,
2013-02-27 05:12:00,33.1,32.5,30.06,NNE,22,2.0,2.0,98,0.00,,,0.00,meteohub,2013-02-27 10:12:00,
2013-02-27 05:17:00,33.1,32.5,30.06,NNE,22,2.0,3.0,98,0.00,,,0.00,meteohub,2013-02-27 10:17:00,
2013-02-27 05:22:00,33.1,32.5,30.06,NNE,22,3.0,3.0,98,0.00,,,0.00,meteohub,2013-02-27 10:22:00,
2013-02-27 05:27:00,33.1,32.5,30.06,NNE,22,2.0,3.0,98,0.00,,,0.00,meteohub,2013-02-27 10:27:00,
2013-02-27 05:37:00,33.3,32.7,30.06,North,0,2.0,3.0,98,0.00,,,0.00,meteohub,2013-02-27 10:37:00,
2013-02-27 05:42:00,33.4,32.9,30.06,North,0,3.0,3.0,98,0.00,,,0.00,meteohub,2013-02-27 10:42:00,
2013-02-27 05:47:00,33.6,33.1,30.03,North,0,3.0,3.0,98,0.00,,,0.00,meteohub,2013-02-27 10:47:00,
2013-02-27 05:52:00,33.8,33.3,30.03,North,0,5.0,5.0,98,0.00,,,0.00,meteohub,2013-02-27 10:52:00,
2013-02-27 05:57:00,33.8,33.3,30.03,North,0,3.0,5.0,98,0.00,,,0.00,meteohub,2013-02-27 10:57:00,
2013-02-27 06:02:00,34.0,33.4,30.03,North,0,2.0,5.0,98,0.00,,,0.00,meteohub,2013-02-27 11:02:00,
2013-02-27 06:07:00,34.2,33.6,30.03,North,0,2.0,5.0,98,0.00,,,0.00,meteohub,2013-02-27 11:07:00,
2013-02-27 06:12:00,34.3,33.8,30.03,North,0,1.0,4.0,98,0.00,,,0.00,meteohub,2013-02-27 11:12:00,
2013-02-27 06:17:00,34.5,34.0,30.03,North,0,0.0,4.0,98,0.00,,,0.00,meteohub,2013-02-27 11:17:00,
2013-02-27 06:22:00,34.7,34.2,30.03,North,0,2.0,4.0,98,0.00,,,0.00,meteohub,2013-02-27 11:22:00,
2013-02-27 06:27:00,34.9,34.3,30.00,NNW,338,2.0,4.0,98,0.00,,,0.00,meteohub,2013-02-27 11:27:00,
2013-02-27 06:32:00,35.1,34.5,30.00,North,0,2.0,3.0,98,0.00,,,0.00,meteohub,2013-02-27 11:32:00,
2013-02-27 06:37:00,35.4,34.9,30.00,NNE,22,2.0,3.0,98,0.00,,,0.00,meteohub,2013-02-27 11:37:00,
2013-02-27 06:42:00,35.6,35.1,29.97,NNW,338,3.0,3.0,98,0.00,,,0.00,meteohub,2013-02-27 11:42:00,
2013-02-27 06:47:00,35.8,35.2,29.97,NNE,22,1.0,4.0,98,0.00,,,0.00,meteohub,2013-02-27 11:47:00,
2013-02-27 06:52:00,35.8,35.2,29.97,ENE,68,1.0,4.0,98,0.00,,,0.00,meteohub,2013-02-27 11:52:00,
2013-02-27 07:02:00,36.3,35.8,30.03,NE,45,1.0,4.0,98,0.04,,,0.04,meteohub,2013-02-27 12:02:00,
2013-02-27 07:07:00,36.3,35.8,30.03,East,90,4.0,4.0,98,0.04,,,0.04,meteohub,2013-02-27 12:07:00,
2013-02-27 07:12:00,36.7,36.1,30.00,NNW,338,1.0,4.0,98,0.04,,,0.04,meteohub,2013-02-27 12:12:00,
2013-02-27 07:17:00,37.0,36.5,30.00,East,90,1.0,4.0,98,0.09,,,0.09,meteohub,2013-02-27 12:17:00,
2013-02-27 07:22:00,37.4,36.9,30.00,NE,45,4.0,4.0,98,0.09,,,0.09,meteohub,2013-02-27 12:22:00,
2013-02-27 07:27:00,37.6,37.0,30.00,SSE,158,5.0,6.0,98,0.13,,,0.13,meteohub,2013-02-27 12:27:00,
2013-02-27 07:32:00,37.6,37.0,30.00,NW,315,2.0,6.0,98,0.13,,,0.13,meteohub,2013-02-27 12:32:00,
2013-02-27 07:42:00,38.1,37.6,29.97,NNE,22,5.0,8.0,98,0.21,,,0.21,meteohub,2013-02-27 12:42:00,
2013-02-27 07:47:00,38.1,37.6,29.97,ENE,68,2.0,9.0,98,0.21,,,0.21,meteohub,2013-02-27 12:47:00,
2013-02-27 07:52:00,37.9,37.4,29.97,North,0,3.0,9.0,98,0.21,,,0.21,meteohub,2013-02-27 12:52:00,
2013-02-27 07:57:00,38.1,37.6,29.97,WNW,292,4.0,10.0,98,0.25,,,0.25,meteohub,2013-02-27 12:57:00,
2013-02-27 08:02:00,38.3,37.8,29.97,ENE,68,2.0,10.0,98,0.21,,,0.25,meteohub,2013-02-27 13:02:00,
2013-02-27 08:07:00,38.3,37.8,29.97,ENE,68,5.0,10.0,98,0.26,,,0.30,meteohub,2013-02-27 13:07:00,
2013-02-27 08:12:00,38.3,37.8,29.97,SE,135,5.0,9.0,98,0.21,,,0.30,meteohub,2013-02-27 13:12:00,
2013-02-27 08:17:00,38.5,37.9,29.97,SSE,158,5.0,8.0,98,0.21,,,0.30,meteohub,2013-02-27 13:17:00,
2013-02-27 08:22:00,38.5,37.9,29.97,SW,225,2.0,8.0,98,0.25,,,0.34,meteohub,2013-02-27 13:22:00,
2013-02-27 08:27:00,38.5,37.9,29.97,East,90,4.0,8.0,98,0.21,,,0.34,meteohub,2013-02-27 13:27:00,
2013-02-27 08:32:00,38.3,37.8,29.97,NE,45,3.0,7.0,98,0.21,,,0.38,meteohub,2013-02-27 13:32:00,
2013-02-27 08:37:00,38.3,37.8,29.97,SSE,158,4.0,10.0,98,0.21,,,0.38,meteohub,2013-02-27 13:37:00,
2013-02-27 08:42:00,38.5,37.9,29.94,ENE,68,6.0,10.0,98,0.21,,,0.42,meteohub,2013-02-27 13:42:00,
2013-02-27 08:47:00,38.5,37.9,29.94,WNW,292,3.0,11.0,98,0.25,,,0.46,meteohub,2013-02-27 13:47:00,
2013-02-27 08:52:00,38.5,37.9,29.94,SE,135,4.0,11.0,98,0.21,,,0.46,meteohub,2013-02-27 13:52:00,
2013-02-27 08:57:00,38.7,38.1,29.94,NNE,22,3.0,11.0,98,0.25,,,0.50,meteohub,2013-02-27 13:57:00,
2013-02-27 09:02:00,38.7,38.1,29.91,ENE,68,4.0,9.0,98,0.29,,,0.54,meteohub,2013-02-27 14:02:00,
2013-02-27 09:07:00,38.7,38.1,29.91,NW,315,2.0,10.0,98,0.24,,,0.54,meteohub,2013-02-27 14:07:00,
2013-02-27 09:12:00,38.8,38.3,29.94,North,0,3.0,10.0,98,0.28,,,0.58,meteohub,2013-02-27 14:12:00,
2013-02-27 09:17:00,38.8,38.3,29.94,North,0,4.0,10.0,98,0.24,,,0.58,meteohub,2013-02-27 14:17:00,
2013-02-27 09:22:00,38.8,38.3,29.94,North,0,4.0,6.0,98,0.24,,,0.58,meteohub,2013-02-27 14:22:00,
2013-02-27 09:27:00,39.2,38.7,29.94,NNW,338,5.0,9.0,98,0.25,,,0.63,meteohub,2013-02-27 14:27:00,
2013-02-27 09:37:00,39.2,38.7,29.94,NE,45,4.0,9.0,98,0.21,,,0.63,meteohub,2013-02-27 14:37:00,
2013-02-27 09:42:00,39.4,38.8,29.91,NNW,338,2.0,9.0,98,0.21,,,0.63,meteohub,2013-02-27 14:42:00,
2013-02-27 09:47:00,39.4,38.8,29.91,NNE,22,4.0,8.0,98,0.17,,,0.63,meteohub,2013-02-27 14:47:00,
2013-02-27 10:47:00,39.7,39.2,29.88,South,180,3.0,7.0,98,0.04,,,0.71,meteohub,2013-02-27 15:47:00,
2013-02-27 10:57:00,39.7,39.2,29.88,East,90,2.0,11.0,98,0.00,,,0.71,meteohub,2013-02-27 15:57:00,
2013-02-27 11:07:00,39.6,39.0,29.88,SSW,202,2.0,11.0,98,0.00,,,0.71,meteohub,2013-02-27 16:07:00,
2013-02-27 11:12:00,39.7,39.2,29.88,ESE,112,4.0,6.0,98,0.00,,,0.71,meteohub,2013-02-27 16:12:00,
2013-02-27 11:17:00,39.7,39.2,29.88,SW,225,4.0,8.0,98,0.04,,,0.75,meteohub,2013-02-27 16:17:00,
2013-02-27 11:22:00,39.9,39.4,29.88,East,90,6.0,8.0,98,0.04,,,0.75,meteohub,2013-02-27 16:22:00,
2013-02-27 11:27:00,40.3,39.7,29.85,NE,45,3.0,10.0,98,0.04,,,0.75,meteohub,2013-02-27 16:27:00,
2013-02-27 11:32:00,40.3,39.7,29.85,North,0,5.0,10.0,98,0.04,,,0.75,meteohub,2013-02-27 16:32:00,
2013-02-27 11:37:00,40.3,39.7,29.85,NE,45,4.0,8.0,98,0.04,,,0.75,meteohub,2013-02-27 16:37:00,
2013-02-27 11:42:00,40.1,39.6,29.85,North,0,7.0,12.0,98,0.04,,,0.75,meteohub,2013-02-27 16:42:00,
2013-02-27 11:47:00,40.1,39.6,29.85,NNE,22,5.0,12.0,98,0.04,,,0.75,meteohub,2013-02-27 16:47:00,
2013-02-27 11:52:00,39.9,39.4,29.85,ENE,68,3.0,10.0,98,0.04,,,0.75,meteohub,2013-02-27 16:52:00,
2013-02-27 11:57:00,39.9,39.4,29.85,ESE,112,6.0,9.0,98,0.08,,,0.79,meteohub,2013-02-27 16:57:00,
2013-02-27 12:07:00,40.1,39.6,29.85,NNE,22,5.0,11.0,98,0.08,,,0.79,meteohub,2013-02-27 17:07:00,
2013-02-27 12:12:00,39.9,39.4,29.79,SE,135,2.0,11.0,98,0.04,,,0.79,meteohub,2013-02-27 17:12:00,
2013-02-27 12:17:00,39.7,39.2,29.79,NNW,338,6.0,10.0,98,0.04,,,0.79,meteohub,2013-02-27 17:17:00,
2013-02-27 12:22:00,39.7,39.2,29.79,ENE,68,3.0,10.0,98,0.04,,,0.79,meteohub,2013-02-27 17:22:00,
2013-02-27 12:27:00,39.7,39.2,29.82,ENE,68,3.0,11.0,98,0.04,,,0.79,meteohub,2013-02-27 17:27:00,
2013-02-27 12:32:00,39.7,39.2,29.82,NNE,22,4.0,13.0,98,0.08,,,0.83,meteohub,2013-02-27 17:32:00,
2013-02-27 12:37:00,39.7,39.2,29.82,NNE,22,9.0,13.0,98,0.08,,,0.83,meteohub,2013-02-27 17:37:00,
2013-02-27 12:42:00,39.7,39.2,29.82,NE,45,6.0,10.0,98,0.08,,,0.83,meteohub,2013-02-27 17:42:00,
2013-02-27 12:47:00,39.7,39.2,29.82,North,0,6.0,13.0,98,0.08,,,0.83,meteohub,2013-02-27 17:47:00,
2013-02-27 12:52:00,39.7,39.2,29.82,SE,135,6.0,13.0,98,0.08,,,0.83,meteohub,2013-02-27 17:52:00,
2013-02-27 12:57:00,39.7,39.2,29.82,NNE,22,6.0,11.0,98,0.08,,,0.87,meteohub,2013-02-27 17:57:00,
2013-02-27 13:02:00,39.7,39.2,29.82,North,0,8.0,10.0,98,0.08,,,0.87,meteohub,2013-02-27 18:02:00,
2013-02-27 13:07:00,39.7,39.2,29.82,ENE,68,8.0,11.0,98,0.13,,,0.92,meteohub,2013-02-27 18:07:00,
2013-02-27 13:12:00,39.7,39.2,29.82,SSE,158,3.0,11.0,98,0.13,,,0.92,meteohub,2013-02-27 18:12:00,
2013-02-27 13:17:00,39.6,39.0,29.82,ENE,68,7.0,10.0,98,0.13,,,0.92,meteohub,2013-02-27 18:17:00,
2013-02-27 13:22:00,39.4,38.8,29.82,ENE,68,3.0,13.0,98,0.13,,,0.92,meteohub,2013-02-27 18:22:00,
2013-02-27 13:27:00,39.4,38.8,29.82,NNW,338,3.0,13.0,98,0.17,,,0.96,meteohub,2013-02-27 18:27:00,
2013-02-27 13:32:00,39.4,38.8,29.82,NNW,338,3.0,13.0,98,0.13,,,0.96,meteohub,2013-02-27 18:32:00,
2013-02-27 13:37:00,39.4,38.8,29.82,West,270,5.0,9.0,98,0.13,,,0.96,meteohub,2013-02-27 18:37:00,
2013-02-27 13:42:00,39.2,38.7,29.82,NNE,22,5.0,12.0,98,0.17,,,1.00,meteohub,2013-02-27 18:42:00,
2013-02-27 13:47:00,39.2,38.7,29.82,WNW,292,6.0,12.0,98,0.17,,,1.00,meteohub,2013-02-27 18:47:00,
2013-02-27 13:52:00,38.8,38.3,29.82,NNW,338,5.0,15.0,98,0.13,,,1.00,meteohub,2013-02-27 18:52:00,
2013-02-27 13:57:00,38.8,38.3,29.82,NE,45,6.0,15.0,98,0.13,,,1.00,meteohub,2013-02-27 18:57:00,
2013-02-27 14:02:00,38.7,38.1,29.82,ENE,68,3.0,15.0,98,0.13,,,1.00,meteohub,2013-02-27 19:02:00,
2013-02-27 14:07:00,38.7,38.1,29.82,West,270,1.0,15.0,98,0.12,,,1.04,meteohub,2013-02-27 19:07:00,
2013-02-27 14:12:00,38.5,37.9,29.79,East,90,4.0,15.0,98,0.12,,,1.04,meteohub,2013-02-27 19:12:00,
2013-02-27 14:17:00,38.5,37.9,29.79,ENE,68,2.0,9.0,98,0.12,,,1.04,meteohub,2013-02-27 19:17:00,
2013-02-27 14:22:00,38.3,37.8,29.79,NE,45,6.0,12.0,98,0.12,,,1.08,meteohub,2013-02-27 19:22:00,
2013-02-27 14:27:00,38.3,37.8,29.79,NNE,22,9.0,12.0,98,0.12,,,1.08,meteohub,2013-02-27 19:27:00,
2013-02-27 14:32:00,37.9,37.4,29.82,ENE,68,3.0,9.0,98,0.16,,,1.12,meteohub,2013-02-27 19:32:00,
2013-02-27 14:37:00,37.9,37.4,29.82,West,270,0.0,9.0,98,0.16,,,1.12,meteohub,2013-02-27 19:37:00,
2013-02-27 14:42:00,37.8,37.2,29.82,NE,45,4.0,9.0,98,0.12,,,1.12,meteohub,2013-02-27 19:42:00,
2013-02-27 14:47:00,37.8,37.2,29.82,North,0,6.0,6.0,98,0.17,,,1.17,meteohub,2013-02-27 19:47:00,
2013-02-27 14:52:00,37.8,37.2,29.82,ENE,68,4.0,8.0,98,0.17,,,1.17,meteohub,2013-02-27 19:52:00,
2013-02-27 14:57:00,37.6,37.0,29.79,ENE,68,7.0,10.0,98,0.21,,,1.21,meteohub,2013-02-27 19:57:00,
2013-02-27 15:02:00,37.8,37.2,29.79,South,180,2.0,10.0,98,0.17,,,1.21,meteohub,2013-02-27 20:02:00,
2013-02-27 15:07:00,37.8,37.2,29.79,NNW,338,4.0,9.0,98,0.21,,,1.25,meteohub,2013-02-27 20:07:00,
2013-02-27 15:12:00,37.8,37.2,29.79,NNE,22,2.0,9.0,98,0.21,,,1.25,meteohub,2013-02-27 20:12:00,
2013-02-27 15:17:00,37.8,37.2,29.79,ENE,68,3.0,8.0,98,0.25,,,1.29,meteohub,2013-02-27 20:17:00,
2013-02-27 15:22:00,37.6,37.0,29.79,ENE,68,6.0,8.0,98,0.21,,,1.29,meteohub,2013-02-27 20:22:00,
2013-02-27 15:27:00,37.8,37.2,29.79,WNW,292,3.0,9.0,98,0.21,,,1.29,meteohub,2013-02-27 20:27:00,
2013-02-27 15:32:00,37.6,37.0,29.76,ENE,68,6.0,9.0,98,0.17,,,1.29,meteohub,2013-02-27 20:32:00,
2013-02-27 15:37:00,37.6,37.0,29.76,South,180,2.0,9.0,98,0.17,,,1.29,meteohub,2013-02-27 20:37:00,
2013-02-27 15:42:00,37.4,36.9,29.76,North,0,3.0,8.0,98,0.16,,,1.33,meteohub,2013-02-27 20:42:00,
2013-02-27 15:47:00,37.4,36.9,29.76,North,0,3.0,8.0,98,0.16,,,1.33,meteohub,2013-02-27 20:47:00,
2013-02-27 15:52:00,37.4,36.9,29.76,SSE,158,2.0,8.0,98,0.12,,,1.33,meteohub,2013-02-27 20:52:00,
2013-02-27 15:57:00,37.4,36.9,29.76,North,0,3.0,8.0,98,0.12,,,1.33,meteohub,2013-02-27 20:57:00,
2013-02-27 16:02:00,37.4,36.9,29.76,ENE,68,3.0,8.0,98,0.08,,,1.33,meteohub,2013-02-27 21:02:00,
2013-02-27 16:07:00,37.4,36.9,29.76,ENE,68,6.0,12.0,98,0.08,,,1.33,meteohub,2013-02-27 21:07:00,
2013-02-27 16:12:00,37.4,36.9,29.76,NNE,22,3.0,12.0,98,0.08,,,1.33,meteohub,2013-02-27 21:12:00,
2013-02-27 16:17:00,37.2,36.7,29.76,WNW,292,3.0,12.0,98,0.04,,,1.33,meteohub,2013-02-27 21:17:00,
2013-02-27 16:22:00,37.0,36.5,29.76,East,90,3.0,10.0,98,0.04,,,1.33,meteohub,2013-02-27 21:22:00,
2013-02-27 16:27:00,37.0,36.5,29.73,ENE,68,3.0,10.0,98,0.04,,,1.33,meteohub,2013-02-27 21:27:00,
2013-02-27 16:32:00,36.9,36.3,29.73,North,0,3.0,10.0,98,0.04,,,1.33,meteohub,2013-02-27 21:32:00,
2013-02-27 16:37:00,36.9,36.3,29.73,NNW,338,3.0,7.0,98,0.00,,,1.33,meteohub,2013-02-27 21:37:00,
2013-02-27 16:42:00,36.9,36.3,29.73,ENE,68,3.0,6.0,98,0.04,,,1.37,meteohub,2013-02-27 21:42:00,
2013-02-27 16:47:00,36.7,36.1,29.73,SSE,158,5.0,10.0,98,0.04,,,1.37,meteohub,2013-02-27 21:47:00,
2013-02-27 16:52:00,36.7,36.1,29.73,NW,315,2.0,10.0,98,0.04,,,1.37,meteohub,2013-02-27 21:52:00,
2013-02-27 16:57:00,36.7,36.1,29.73,North,0,3.0,10.0,98,0.04,,,1.37,meteohub,2013-02-27 21:57:00,
2013-02-27 17:02:00,36.5,36.0,29.73,ENE,68,4.0,6.0,98,0.04,,,1.37,meteohub,2013-02-27 22:02:00,
2013-02-27 17:07:00,36.5,36.0,29.73,North,0,3.0,6.0,98,0.04,,,1.37,meteohub,2013-02-27 22:07:00,
2013-02-27 17:12:00,36.5,36.0,29.73,North,0,4.0,5.0,98,0.04,,,1.37,meteohub,2013-02-27 22:12:00,
2013-02-27 17:17:00,36.3,35.8,29.73,NE,45,3.0,5.0,98,0.04,,,1.37,meteohub,2013-02-27 22:17:00,
2013-02-27 17:22:00,36.3,35.8,29.73,NE,45,3.0,6.0,98,0.04,,,1.37,meteohub,2013-02-27 22:22:00,
2013-02-27 17:27:00,36.1,35.6,29.76,NNE,22,0.0,6.0,98,0.04,,,1.37,meteohub,2013-02-27 22:27:00,
2013-02-27 17:32:00,36.1,35.6,29.76,NNW,338,6.0,6.0,98,0.08,,,1.41,meteohub,2013-02-27 22:32:00,
2013-02-27 17:37:00,36.1,35.6,29.76,NNW,338,2.0,6.0,98,0.04,,,1.41,meteohub,2013-02-27 22:37:00,
2013-02-27 17:42:00,36.0,35.4,29.76,NNW,338,2.0,6.0,98,0.04,,,1.41,meteohub,2013-02-27 22:42:00,
2013-02-27 17:52:00,36.0,35.4,29.76,East,90,2.0,8.0,98,0.04,,,1.41,meteohub,2013-02-27 22:52:00,
2013-02-27 17:57:00,36.0,35.4,29.76,ENE,68,3.0,8.0,98,0.04,,,1.41,meteohub,2013-02-27 22:57:00,
2013-02-27 18:02:00,36.0,35.4,29.76,NE,45,3.0,5.0,98,0.04,,,1.41,meteohub,2013-02-27 23:02:00,
2013-02-27 18:07:00,36.0,35.4,29.76,North,0,3.0,6.0,98,0.04,,,1.41,meteohub,2013-02-27 23:07:00,
2013-02-27 18:12:00,36.0,35.4,29.73,NW,315,2.0,6.0,98,0.08,,,1.45,meteohub,2013-02-27 23:12:00,
2013-02-27 18:17:00,36.1,35.6,29.73,NW,315,2.0,6.0,98,0.08,,,1.45,meteohub,2013-02-27 23:17:00,
2013-02-27 18:22:00,36.1,35.6,29.73,WSW,248,3.0,5.0,98,0.08,,,1.45,meteohub,2013-02-27 23:22:00,
2013-02-27 18:27:00,36.1,35.6,29.73,NE,45,2.0,4.0,98,0.08,,,1.45,meteohub,2013-02-27 23:27:00,
2013-02-27 18:32:00,36.1,35.6,29.73,NNE,22,2.0,4.0,98,0.04,,,1.45,meteohub,2013-02-27 23:32:00,
2013-02-27 18:37:00,36.3,35.8,29.73,North,0,1.0,4.0,98,0.04,,,1.45,meteohub,2013-02-27 23:37:00,
2013-02-27 18:42:00,36.3,35.8,29.73,NW,315,4.0,4.0,98,0.04,,,1.45,meteohub,2013-02-27 23:42:00,
2013-02-27 18:47:00,36.3,35.8,29.70,NNE,22,3.0,5.0,98,0.04,,,1.45,meteohub,2013-02-27 23:47:00,
2013-02-27 18:52:00,36.3,35.8,29.70,NNE,22,3.0,5.0,98,0.04,,,1.45,meteohub,2013-02-27 23:52:00,
2013-02-27 18:57:00,36.5,36.0,29.70,North,0,2.0,6.0,98,0.04,,,1.45,meteohub,2013-02-27 23:57:00,
2013-02-27 19:02:00,36.5,36.0,29.70,North,0,4.0,6.0,98,0.04,,,1.45,meteohub,2013-02-28 00:02:00,
2013-02-27 19:07:00,36.5,36.0,29.70,NE,45,5.0,6.0,98,0.00,,,1.45,meteohub,2013-02-28 00:07:00,
2013-02-27 19:12:00,36.5,36.0,29.70,WNW,292,2.0,6.0,98,0.00,,,0.00,meteohub,2013-02-28 00:12:00,
2013-02-27 19:17:00,36.7,36.1,29.70,NNE,22,4.0,6.0,98,0.00,,,0.00,meteohub,2013-02-28 00:17:00,
2013-02-27 19:22:00,36.7,36.1,29.70,NNW,338,3.0,6.0,98,0.00,,,0.00,meteohub,2013-02-28 00:22:00,
2013-02-27 19:27:00,36.7,36.1,29.70,NW,315,2.0,7.0,98,0.00,,,0.00,meteohub,2013-02-28 00:27:00,
2013-02-27 19:32:00,36.9,36.3,29.67,ENE,68,2.0,7.0,98,0.00,,,0.00,meteohub,2013-02-28 00:32:00,
2013-02-27 19:37:00,36.9,36.3,29.67,NNE,22,4.0,7.0,98,0.00,,,0.00,meteohub,2013-02-28 00:37:00,
2013-02-27 19:42:00,36.9,36.3,29.70,NNW,338,4.0,5.0,98,0.00,,,0.00,meteohub,2013-02-28 00:42:00,
2013-02-27 19:47:00,36.9,36.3,29.70,North,0,4.0,5.0,98,0.00,,,0.00,meteohub,2013-02-28 00:47:00,
2013-02-27 19:52:00,36.9,36.3,29.70,North,0,6.0,6.0,98,0.00,,,0.00,meteohub,2013-02-28 00:52:00,
2013-02-27 19:57:00,36.9,36.3,29.70,North,0,3.0,7.0,98,0.00,,,0.00,meteohub,2013-02-28 00:57:00,
2013-02-27 20:02:00,36.9,36.3,29.70,NNE,22,3.0,7.0,98,0.00,,,0.00,meteohub,2013-02-28 01:02:00,
2013-02-27 20:07:00,36.9,36.3,29.70,North,0,3.0,7.0,98,0.05,,,0.05,meteohub,2013-02-28 01:07:00,
2013-02-27 20:12:00,36.7,36.1,29.70,NNW,338,3.0,4.0,98,0.05,,,0.05,meteohub,2013-02-28 01:12:00,
2013-02-27 20:17:00,36.7,36.1,29.70,NNW,338,2.0,4.0,98,0.05,,,0.05,meteohub,2013-02-28 01:17:00,
2013-02-27 20:22:00,36.7,36.1,29.70,North,0,1.0,4.0,98,0.05,,,0.05,meteohub,2013-02-28 01:22:00,
2013-02-27 20:27:00,36.7,36.1,29.70,NNW,338,2.0,4.0,98,0.05,,,0.05,meteohub,2013-02-28 01:27:00,
2013-02-27 20:32:00,36.5,36.0,29.70,NNE,22,3.0,3.0,98,0.05,,,0.05,meteohub,2013-02-28 01:32:00,
2013-02-27 20:37:00,36.3,35.8,29.70,North,0,4.0,4.0,98,0.05,,,0.05,meteohub,2013-02-28 01:37:00,
2013-02-27 20:47:00,36.3,35.8,29.70,NNW,338,3.0,5.0,98,0.05,,,0.05,meteohub,2013-02-28 01:47:00,
2013-02-27 20:52:00,36.1,35.6,29.70,NNW,338,2.0,5.0,98,0.05,,,0.05,meteohub,2013-02-28 01:52:00,
2013-02-27 20:57:00,36.1,35.6,29.67,NNW,338,4.0,4.0,98,0.05,,,0.05,meteohub,2013-02-28 01:57:00,
2013-02-27 21:02:00,36.1,35.6,29.67,North,0,4.0,4.0,98,0.00,,,0.05,meteohub,2013-02-28 02:02:00,
2013-02-27 21:07:00,36.1,35.6,29.67,North,0,5.0,6.0,98,0.00,,,0.05,meteohub,2013-02-28 02:07:00,
2013-02-27 21:12:00,36.0,35.4,29.64,NNW,338,3.0,6.0,98,0.00,,,0.05,meteohub,2013-02-28 02:12:00,
2013-02-27 21:17:00,35.8,35.2,29.64,North,0,4.0,5.0,98,0.00,,,0.05,meteohub,2013-02-28 02:17:00,
2013-02-27 21:22:00,35.8,35.2,29.64,NNW,338,2.0,5.0,98,0.00,,,0.05,meteohub,2013-02-28 02:22:00,
2013-02-27 21:27:00,35.6,35.1,29.64,North,0,3.0,5.0,98,0.00,,,0.05,meteohub,2013-02-28 02:27:00,
2013-02-27 21:32:00,35.6,35.1,29.64,NNE,22,2.0,5.0,98,0.00,,,0.05,meteohub,2013-02-28 02:32:00,
2013-02-27 21:37:00,35.4,34.9,29.64,NNW,338,2.0,5.0,98,0.00,,,0.05,meteohub,2013-02-28 02:37:00,
2013-02-27 21:42:00,35.4,34.9,29.67,NNW,338,3.0,4.0,98,0.00,,,0.05,meteohub,2013-02-28 02:42:00,
2013-02-27 21:47:00,35.2,34.7,29.67,NNW,338,3.0,4.0,98,0.00,,,0.05,meteohub,2013-02-28 02:47:00,
2013-02-27 21:52:00,35.2,34.7,29.67,NNW,338,2.0,4.0,98,0.00,,,0.05,meteohub,2013-02-28 02:52:00,
2013-02-27 21:57:00,35.2,34.7,29.67,NNW,338,2.0,5.0,98,0.00,,,0.05,meteohub,2013-02-28 02:57:00,
2013-02-27 22:02:00,35.2,34.7,29.67,NNW,338,3.0,5.0,98,0.00,,,0.05,meteohub,2013-02-28 03:02:00,
2013-02-27 22:07:00,35.2,34.7,29.67,NNE,22,2.0,4.0,98,0.00,,,0.05,meteohub,2013-02-28 03:07:00,
2013-02-27 22:12:00,35.1,34.5,29.67,NNW,338,3.0,4.0,98,0.00,,,0.05,meteohub,2013-02-28 03:12:00,
2013-02-27 22:22:00,34.7,34.2,29.67,NNW,338,3.0,4.0,98,0.00,,,0.05,meteohub,2013-02-28 03:22:00,
2013-02-27 22:27:00,34.7,34.2,29.70,NW,315,3.0,5.0,98,0.00,,,0.05,meteohub,2013-02-28 03:27:00,
2013-02-27 22:32:00,34.5,34.0,29.70,North,0,2.0,5.0,98,0.00,,,0.05,meteohub,2013-02-28 03:32:00,
2013-02-27 22:37:00,34.5,34.0,29.70,North,0,3.0,4.0,98,0.00,,,0.05,meteohub,2013-02-28 03:37:00,
2013-02-27 22:42:00,34.5,34.0,29.67,North,0,3.0,4.0,98,0.00,,,0.05,meteohub,2013-02-28 03:42:00,
2013-02-27 22:47:00,34.3,33.8,29.67,NNW,338,2.0,5.0,98,0.00,,,0.05,meteohub,2013-02-28 03:47:00,
2013-02-27 22:52:00,34.3,33.8,29.67,NNW,338,2.0,5.0,98,0.00,,,0.05,meteohub,2013-02-28 03:52:00,
2013-02-27 22:57:00,34.3,33.8,29.67,NNW,338,2.0,3.0,98,0.00,,,0.05,meteohub,2013-02-28 03:57:00,
2013-02-27 23:07:00,34.3,33.8,29.67,North,0,3.0,4.0,98,0.00,,,0.05,meteohub,2013-02-28 04:07:00,
2013-02-27 23:17:00,34.2,33.6,29.64,NNW,338,2.0,6.0,98,0.00,,,0.05,meteohub,2013-02-28 04:17:00,
2013-02-27 23:22:00,34.2,33.6,29.64,NNW,338,3.0,6.0,98,0.00,,,0.05,meteohub,2013-02-28 04:22:00,
2013-02-27 23:27:00,34.2,33.6,29.64,North,0,3.0,5.0,98,0.00,,,0.05,meteohub,2013-02-28 04:27:00,
2013-02-27 23:32:00,34.2,33.6,29.64,North,0,4.0,4.0,98,0.00,,,0.05,meteohub,2013-02-28 04:32:00,
2013-02-27 23:37:00,34.2,33.6,29.64,NNW,338,2.0,4.0,98,0.00,,,0.05,meteohub,2013-02-28 04:37:00,
2013-02-27 23:42:00,34.2,33.6,29.64,NNW,338,2.0,5.0,98,0.00,,,0.05,meteohub,2013-02-28 04:42:00,
2013-02-27 23:47:00,34.0,33.4,29.64,North,0,3.0,5.0,98,0.00,,,0.05,meteohub,2013-02-28 04:47:00,
2013-02-27 23:52:00,34.0,33.4,29.64,NNE,22,2.0,5.0,98,0.00,,,0.05,meteohub,2013-02-28 04:52:00,